DateTime,F1_A11,F1_S11,BsB_S11,BsG_S11,BsR_S11,BbsB_S11,BbsG_S11,BbsR_S11,BaB_A11,BaG_A11,BaR_A11,T_S11,U_S11,P_S11,T1_A11
2016-02-19T00:00:00Z,0000380,21000600,,,,,,,,,,23.0,00.0,0633.9,34.0
2016-02-19T00:01:00Z,0000380,21000600,,,,,,,,,,23.0,00.0,0634.0,34.0
2016-02-19T00:02:00Z,0000380,21000600,,,,,,,,,,23.0,00.0,0634.0,34.0
2016-02-19T00:03:00Z,0000380,61000600,,,,,,,,,,23.1,00.0,0634.0,34.0
2016-02-19T00:04:00Z,0000380,41000600,-000.61,0000.32,-000.36,-000.41,0000.03,-000.35,-000.16,-000.01,-000.21,23.2,00.0,0634.6,34.0
2016-02-19T00:05:00Z,0000380,01000600,0000.27,-000.06,0000.53,0000.35,0000.10,-000.12,0000.30,0000.01,-000.09,23.2,00.0,0634.7,34.0
2016-02-19T00:06:00Z,0000380,01000600,-000.97,-000.15,-000.38,0000.72,-000.26,-000.46,0000.04,-000.02,0000.23,23.3,00.0,0634.7,34.0
2016-02-19T00:07:00Z,0000380,01000600,-000.63,0000.30,-000.20,-000.18,-000.33,0000.05,-000.06,0000.19,-000.30,23.3,00.0,0634.7,34.0
2016-02-19T00:08:00Z,0000380,01000600,-000.19,0000.04,0000.18,0000.25,-000.07,-000.15,-000.00,0000.04,-000.06,23.3,00.0,0634.7,34.0
2016-02-19T00:09:00Z,0000380,01000600,-000.11,-000.46,0000.44,0000.20,0000.10,-000.08,-000.04,0000.01,0000.21,23.3,00.0,0634.7,34.0
2016-02-19T00:10:00Z,0000380,01000600,0000.57,0000.11,-000.27,-000.36,-000.26,-000.05,0000.34,-000.07,-000.10,23.3,00.0,0634.7,34.0
2016-02-19T00:11:00Z,0000380,01000600,-001.02,-000.04,0000.05,0000.43,0000.26,-000.18,-000.21,0000.03,-000.08,23.3,00.0,0634.7,34.0
2016-02-19T00:12:00Z,0000380,01000600,-001.42,0000.63,-000.18,0000.08,0000.39,0000.40,-000.08,0000.02,-000.20,23.3,00.0,0634.7,34.0
2016-02-19T00:13:00Z,0000380,01000600,-000.32,0000.35,-000.18,-000.12,-000.07,-000.20,-000.03,0000.12,0000.17,23.3,00.0,0634.7,34.0
2016-02-19T00:14:00Z,0000380,01000600,0000.87,0000.24,-000.31,0000.21,-000.30,0000.07,0000.05,0000.02,-000.04,23.3,00.0,0634.7,34.0
2016-02-19T00:15:00Z,0000380,01000600,-000.04,-000.06,0000.11,-000.21,-000.25,0000.10,-000.13,-000.26,0000.16,23.2,00.0,0634.7,34.0
2016-02-19T00:16:00Z,0000380,01000600,0000.68,0000.80,-000.07,-000.23,0000.36,-000.03,0000.11,-000.08,-000.12,23.2,00.0,0634.7,34.0
2016-02-19T00:17:00Z,0000380,01000600,-000.72,0000.13,-000.29,0000.38,0000.02,0000.30,0000.08,0000.08,-000.07,23.3,00.0,0634.7,34.0
2016-02-19T00:18:00Z,0000380,01000600,0000.25,0000.43,-000.07,-000.08,0000.23,0000.20,-000.14,-000.03,0000.24,23.2,00.0,0634.6,34.0
2016-02-19T00:19:00Z,0000380,01000600,-000.80,-000.26,-000.20,0000.15,0000.16,0000.08,-000.07,-000.02,-000.15,23.3,00.0,0634.6,34.0
2016-02-19T00:20:00Z,0000380,01000600,0000.17,-000.17,-000.29,-000.03,0000.18,-000.40,0000.23,0000.21,0000.13,23.3,00.0,0634.6,34.0
2016-02-19T00:21:00Z,0000380,01000600,-000.27,0000.50,-000.13,0000.41,-000.05,0000.33,0000.02,-000.22,-000.01,23.3,00.0,0634.6,34.0
2016-02-19T00:22:00Z,0000380,01000600,0000.89,0000.16,-000.36,-000.40,0000.07,-000.13,0000.06,0000.17,0000.16,23.3,00.0,0634.7,34.0
2016-02-19T00:23:00Z,0000380,01000600,-000.30,0000.17,-000.07,0000.31,0000.25,0000.10,0000.02,-000.03,-000.07,23.3,00.0,0634.6,34.0
2016-02-19T00:24:00Z,0000380,01000600,-000.63,0000.24,-000.38,0000.21,-000.26,-000.16,0000.13,0000.01,-000.15,23.3,00.0,0634.7,34.0
2016-02-19T00:25:00Z,0000380,01000600,0000.17,0000.00,-000.24,-000.13,-000.07,-000.12,-000.18,0000.11,0000.11,23.3,00.0,0634.7,34.0
2016-02-19T00:26:00Z,0000380,01000600,-000.36,0000.32,-000.42,-000.03,0000.26,-000.41,-000.04,0000.06,-000.18,23.3,00.0,0634.7,34.0
2016-02-19T00:27:00Z,0000380,01000600,-000.17,0000.33,0000.05,0000.26,-000.07,-000.33,0000.02,-000.13,0000.16,23.3,00.0,0634.6,34.0
2016-02-19T00:28:00Z,0000380,01000600,0000.32,0000.65,-000.35,0000.16,-000.18,0000.03,-000.11,0000.03,-000.24,23.3,00.0,0634.6,34.0
2016-02-19T00:29:00Z,0000380,01000600,0000.55,-000.18,0000.11,-000.05,0000.18,-000.16,-000.05,-000.04,0000.25,23.2,00.0,0634.7,34.0
2016-02-19T00:30:00Z,0000380,01000600,-000.33,0000.08,0000.15,-000.46,-000.13,0000.07,0000.27,-000.03,-000.07,23.2,00.0,0634.7,34.0
2016-02-19T00:31:00Z,0000380,01000600,0000.45,0000.06,-000.05,-000.64,-000.31,0000.23,-000.10,0000.01,-000.08,23.2,00.0,0634.7,34.0
2016-02-19T00:32:00Z,0000380,01000600,-000.32,0000.06,-000.16,-000.12,-000.31,-000.21,0000.03,-000.11,0000.06,23.2,00.0,0634.7,34.0
2016-02-19T00:33:00Z,0000380,01000600,-000.15,-000.09,0000.09,0000.94,-000.13,-000.18,0000.02,0000.03,0000.08,23.2,00.0,0634.7,34.0
2016-02-19T00:34:00Z,0000380,01000600,-000.28,-000.37,0000.16,-000.02,0000.13,-000.21,0000.03,-000.03,0000.13,23.2,00.0,0634.7,34.0
2016-02-19T00:35:00Z,0000380,01000600,0000.28,-000.37,0000.22,0000.49,0000.31,0000.02,0000.05,0000.07,-000.05,23.2,00.0,0634.7,34.0
2016-02-19T00:36:00Z,0000380,01000600,0000.02,0000.28,-000.15,-000.12,-000.23,-000.16,-000.05,-000.07,-000.01,23.2,00.0,0634.7,34.0
2016-02-19T00:37:00Z,0000380,01000600,-000.44,-000.20,-000.18,0000.02,-000.26,0000.00,0000.09,0000.04,-000.09,23.3,00.0,0634.7,34.0
2016-02-19T00:38:00Z,0000380,01000600,0000.23,-000.07,0000.05,-000.25,0000.16,-000.36,-000.07,0000.21,0000.02,23.3,00.0,0634.7,34.0
2016-02-19T00:39:00Z,0000380,01000600,-000.21,0000.55,0000.15,-000.44,-000.21,-000.28,0000.08,-000.08,0000.26,23.3,00.0,0634.7,34.0
2016-02-19T00:40:00Z,0000380,01000600,-000.85,0000.43,-000.18,0000.66,0000.31,-000.21,-000.08,0000.18,-000.39,23.3,00.0,0634.7,34.0
2016-02-19T00:41:00Z,0000380,01000600,-000.59,-000.06,-000.15,0000.13,-000.10,-000.16,0000.10,-000.03,0000.13,23.3,00.0,0634.7,34.0
2016-02-19T00:42:00Z,0000380,01000600,-000.09,0000.28,-000.27,0000.91,0000.02,0000.02,0000.06,0000.15,-000.04,23.2,00.0,0634.7,34.0
2016-02-19T00:43:00Z,0000380,01000600,-000.66,0000.26,0000.23,-000.26,0000.39,0000.00,-000.13,-000.12,0000.09,23.2,00.0,0634.8,34.0
2016-02-19T00:44:00Z,0000380,01000600,0000.11,-000.20,-000.04,-000.16,-000.26,0000.07,0000.03,-000.12,-000.16,23.2,00.0,0634.8,34.0
2016-02-19T00:45:00Z,0000380,01000600,0000.11,0000.12,0000.06,0000.51,-000.11,-000.08,-000.08,0000.03,0000.19,23.2,00.0,0634.8,34.0
2016-02-19T00:46:00Z,0000380,01000600,0001.23,-000.02,-000.12,-000.28,0000.23,-000.51,0000.09,-000.01,0000.31,23.2,00.0,0634.8,34.0
2016-02-19T00:47:00Z,0000380,01000600,0000.69,0000.78,0000.00,-000.18,-000.02,-000.15,-000.04,0000.00,-000.41,23.2,00.0,0634.7,34.0
2016-02-19T00:48:00Z,0000380,01000600,0000.22,0000.44,-000.27,-000.56,-000.07,0000.13,0000.07,-000.04,0000.07,23.2,00.0,0634.7,34.0
2016-02-19T00:49:00Z,0000380,01000600,0000.43,-000.38,0000.11,-000.16,-000.05,-000.36,-000.04,0000.05,0000.02,23.2,00.0,0634.7,34.0
2016-02-19T00:50:00Z,0000380,01000600,-000.11,0000.33,-000.09,-000.15,0000.43,-000.25,0000.05,0000.11,0000.15,23.2,00.0,0634.7,34.0
2016-02-19T00:51:00Z,0000380,01000600,0000.35,-000.10,0000.25,0000.86,0000.10,-000.21,-000.07,-000.18,0000.09,23.2,00.0,0634.7,34.0
2016-02-19T00:52:00Z,0000380,01000600,0000.33,-000.39,-000.02,-000.21,0000.30,-000.38,-000.05,-000.01,-000.03,23.3,00.0,0634.7,34.0
2016-02-19T00:53:00Z,0000380,01000600,0001.07,0000.06,0000.15,0000.18,-000.15,-000.10,0000.12,0000.10,-000.05,23.3,00.0,0634.7,34.0
2016-02-19T00:54:00Z,0000380,01000600,0000.27,0000.02,-000.20,-000.89,0000.11,-000.02,0000.03,0000.02,0000.09,23.3,00.0,0634.7,34.0
2016-02-19T00:55:00Z,0000380,01000600,0000.27,0000.68,-000.10,0000.46,0000.03,-000.03,-000.09,0000.06,-000.16,23.3,00.0,0634.7,34.0
2016-02-19T00:56:00Z,0000380,01000600,0000.09,0000.34,-000.29,-000.64,-000.20,0000.12,0000.11,0000.10,0000.02,23.3,00.0,0634.7,34.0
2016-02-19T00:57:00Z,0000380,41000600,,,,,,,,,,,,0634.8,34.0
2016-02-19T00:58:00Z,0000380,61000600,,,,,,,,,,23.2,00.0,0634.0,34.0
2016-02-19T00:59:00Z,0000380,21000600,,,,,,,,,,23.2,00.0,0634.0,34.0
2016-02-19T01:00:00Z,0000380,21000600,,,,,,,,,,23.2,00.0,0634.0,34.0
2016-02-19T01:01:00Z,0000380,21000600,,,,,,,,,,23.2,00.0,0634.0,34.0
2016-02-19T01:02:00Z,0000380,21000600,,,,,,,,,,23.2,00.0,0634.0,34.0
2016-02-19T01:03:00Z,0000380,61000600,,,,,,,,,,23.2,00.0,0634.0,34.0
2016-02-19T01:04:00Z,0000380,41000600,0000.24,0000.04,-000.01,0000.08,0000.61,0000.20,-000.12,0000.06,0000.04,23.3,00.0,0634.6,34.0
2016-02-19T01:05:00Z,0000380,01000600,-000.07,-000.03,-000.22,0000.43,0000.16,-000.21,0000.07,0000.00,-000.03,23.3,00.0,0634.7,34.0
2016-02-19T01:06:00Z,0000380,01000600,0000.51,0000.29,0000.19,-000.03,-000.18,-000.30,-000.07,-000.18,0000.03,23.3,00.0,0634.7,34.0
2016-02-19T01:07:00Z,0000380,01000600,-000.97,-000.20,-000.35,-000.20,0000.30,-000.05,0000.15,0000.16,-000.08,23.4,00.0,0634.7,34.0
2016-02-19T01:08:00Z,0000380,01000600,0000.87,0000.47,0000.36,0000.05,0000.38,0000.20,0000.03,0000.09,0000.28,23.4,00.0,0634.7,34.0
2016-02-19T01:09:00Z,0000380,01000600,0000.24,0000.70,0000.39,0000.53,0000.43,-000.05,-000.07,-000.08,-000.14,23.4,00.0,0634.7,34.0
2016-02-19T01:10:00Z,0000380,01000600,0000.39,-000.05,-000.17,0000.56,0000.23,-000.03,0000.12,-000.07,0000.01,23.4,00.0,0634.7,34.0
2016-02-19T01:11:00Z,0000380,01000600,0000.50,0000.03,0000.00,-000.38,0000.77,0000.15,-000.27,0000.01,-000.38,23.4,00.0,0634.7,34.0
2016-02-19T01:12:00Z,0000380,01000600,0000.49,0000.36,-000.23,0000.38,-000.08,-000.40,0000.16,-000.02,0000.37,23.3,00.0,0634.7,34.0
2016-02-19T01:13:00Z,0000380,01000600,0000.10,0000.54,-000.16,-000.21,0000.34,0000.07,-000.15,0000.02,-000.00,23.4,00.0,0634.7,34.0
2016-02-19T01:14:00Z,0000380,01000600,0000.00,-000.12,-000.17,-000.49,0000.31,0000.40,0000.17,0000.04,-000.13,23.3,00.0,0634.7,34.0
2016-02-19T01:15:00Z,0000380,01000600,-000.11,0000.45,-000.28,-000.26,-000.21,-000.08,-000.05,0000.04,0000.07,23.3,00.0,0634.8,34.0
2016-02-19T01:16:00Z,0000380,01000600,0000.56,0001.00,-000.30,-000.56,0000.21,-000.53,0000.10,-000.11,0000.24,23.3,00.0,0634.7,34.0
2016-02-19T01:17:00Z,0000380,01000600,0001.26,0000.42,-000.15,0000.51,-000.41,-000.18,-000.20,-000.07,-000.34,23.3,00.0,0634.7,34.0
2016-02-19T01:18:00Z,0000380,01000600,0000.04,0000.75,0000.18,0000.41,0000.33,0000.31,0000.02,-000.09,0000.20,23.4,00.0,0634.8,34.0
2016-02-19T01:19:00Z,0000380,01000600,0000.38,-000.15,0000.20,0000.05,0000.34,0000.23,0000.04,0000.30,0000.12,23.4,00.0,0634.8,34.0
2016-02-19T01:20:00Z,0000380,01000600,0000.11,0000.53,0000.10,0000.54,0000.84,-000.10,0000.14,-000.15,-000.00,23.5,00.0,0634.7,34.0
2016-02-19T01:21:00Z,0000380,01000600,0000.30,0000.06,-000.06,-000.15,0000.23,-000.15,-000.10,0000.16,-000.20,23.5,00.0,0634.8,34.0
2016-02-19T01:22:00Z,0000380,01000600,0000.31,0000.91,-000.33,0000.05,0000.23,-000.21,0000.02,-000.01,0000.16,23.5,00.0,0634.7,34.0
2016-02-19T01:23:00Z,0000380,01000600,0000.04,0000.15,-000.21,0000.45,0000.23,-000.53,0000.10,0000.12,0000.01,23.5,00.0,0634.7,34.0
2016-02-19T01:24:00Z,0000380,01000600,0000.54,0000.00,0000.00,-000.15,0000.49,0000.17,-000.08,-000.27,-000.22,23.5,00.0,0634.7,34.0
2016-02-19T01:25:00Z,0000380,01000600,0000.45,0000.22,-000.22,-000.48,0000.31,-000.41,0000.10,0000.19,0000.16,23.5,00.0,0634.7,34.0
2016-02-19T01:26:00Z,0000380,01000600,-000.09,0001.10,-000.11,0000.45,0000.44,0000.03,-000.07,-000.03,0000.29,23.5,00.0,0634.8,34.0
2016-02-19T01:27:00Z,0000380,01000600,-000.17,0000.19,0000.05,-000.03,0000.18,-000.18,-000.08,0000.17,-000.18,23.5,00.0,0634.8,34.0
2016-02-19T01:28:00Z,0000380,01000600,0000.32,0000.18,0000.06,-000.30,0000.15,-000.28,0000.02,-000.21,-000.47,23.5,00.0,0634.8,34.0
2016-02-19T01:29:00Z,0000380,01000600,-000.44,0000.39,-000.29,0000.30,0000.34,0000.02,0000.19,0000.05,0000.48,23.4,00.0,0634.8,34.0
2016-02-19T01:30:00Z,0000380,01000600,0000.21,-000.54,-000.27,-000.12,0000.48,-000.26,0000.05,0000.04,-000.16,23.4,00.0,0634.8,34.0
2016-02-19T01:31:00Z,0000380,01000600,0000.31,-000.02,0000.02,-000.10,0000.57,0000.00,-000.13,-000.15,0000.30,23.4,00.0,0634.8,34.0
2016-02-19T01:32:00Z,0000380,01000600,-000.33,0000.05,-000.09,0000.07,-000.08,-000.21,0000.04,-000.04,-000.16,23.5,00.0,0634.8,34.0
2016-02-19T01:33:00Z,0000380,01000600,0000.44,0000.53,0000.40,0000.38,0000.39,-000.03,0000.04,0000.06,-000.16,23.5,00.0,0634.8,34.0
2016-02-19T01:34:00Z,0000380,01000600,0000.34,-000.27,-000.05,-000.16,0000.38,0000.15,0000.07,0000.01,0000.27,23.5,00.0,0634.8,34.0
2016-02-19T01:35:00Z,0000380,01000600,0000.91,0001.10,0000.35,0000.05,0000.00,0000.18,0000.16,0000.02,0000.09,23.6,00.0,0634.8,34.0
2016-02-19T01:36:00Z,0000380,01000600,0000.90,0000.09,0000.20,-000.30,0000.26,0000.03,-000.07,0000.16,-000.10,23.6,00.0,0634.8,34.0
2016-02-19T01:37:00Z,0000380,01000600,0000.62,0000.12,-000.02,-000.20,0000.20,-000.45,-000.09,-000.05,-000.05,23.7,00.0,0634.7,34.0
2016-02-19T01:38:00Z,0000380,01000600,0000.60,0000.07,-000.14,0000.07,0000.23,-000.08,0000.08,0000.07,0000.22,23.7,00.0,0634.7,34.0
2016-02-19T01:39:00Z,0000380,01000600,0000.73,0000.74,-000.41,-000.20,0000.43,-000.05,-000.30,0000.09,-000.03,23.7,00.0,0634.7,34.0
2016-02-19T01:40:00Z,0000380,01000600,0000.60,0000.98,-000.30,-000.92,0000.46,0000.05,0000.34,-000.30,-000.33,23.7,00.0,0634.7,34.0
2016-02-19T01:41:00Z,0000380,01000600,-000.79,0000.54,0000.15,0000.26,-000.13,-000.20,-000.13,0000.20,-000.00,23.7,00.0,0634.7,34.0
2016-02-19T01:42:00Z,0000380,01000600,0000.63,-000.16,-000.11,0000.48,0000.23,0000.07,0000.08,-000.01,0000.34,23.7,00.0,0634.8,34.0
2016-02-19T01:43:00Z,0000380,01000600,0000.98,0000.16,-000.05,-000.48,0000.00,0000.12,0000.00,0000.11,-000.31,23.7,00.0,0634.8,34.0
2016-02-19T01:44:00Z,0000380,01000600,0001.12,0000.42,-000.12,-000.26,0000.43,-000.13,0000.10,-000.14,0000.30,23.7,00.0,0634.8,34.0
2016-02-19T01:45:00Z,0000380,01000600,0000.25,0000.00,0000.25,0000.21,0000.33,-000.25,0000.01,0000.21,0000.01,23.7,00.0,0634.8,34.1
2016-02-19T01:46:00Z,0000380,01000600,0000.56,0000.34,0000.14,-000.13,-000.08,-000.41,-000.11,-000.13,-000.33,23.7,00.0,0634.8,34.1
2016-02-19T01:47:00Z,0000380,01000600,0000.43,0000.10,0000.15,-000.02,0000.11,0000.02,-000.02,0000.02,0000.42,23.7,00.0,0634.8,34.1
2016-02-19T01:48:00Z,0000380,01000600,0000.31,0000.23,0000.18,-000.58,0000.07,0000.10,0000.04,0000.11,0000.08,23.8,00.0,0634.8,34.1
2016-02-19T01:49:00Z,0000380,01000600,-000.08,0000.42,0000.18,-000.26,0000.28,0000.05,0000.22,-000.19,-000.06,23.8,00.0,0634.8,34.1
2016-02-19T01:50:00Z,0000380,01000600,-000.11,0000.60,0000.03,-000.41,0000.31,-000.18,0000.00,0000.08,-000.08,23.8,00.0,0634.8,34.1
2016-02-19T01:51:00Z,0000380,01000600,0000.09,0000.58,0000.02,0000.03,0000.35,-000.30,0000.02,0000.10,-000.08,23.8,00.0,0634.8,34.1
2016-02-19T01:52:00Z,0000380,01000600,-000.57,0000.00,0000.17,-000.30,0000.18,0000.03,-000.05,0000.01,-000.18,23.8,00.0,0634.8,34.1
2016-02-19T01:53:00Z,0000380,01000600,0000.54,-000.29,-000.65,-000.40,0000.69,-000.03,0000.11,0000.07,0000.11,23.9,00.0,0634.8,34.1
2016-02-19T01:54:00Z,0000380,01000600,0000.48,0000.13,-000.13,0000.05,0000.08,-000.12,-000.02,0000.03,0000.25,23.8,00.0,0634.8,34.1
2016-02-19T01:55:00Z,0000380,01000600,-000.29,0000.40,0000.02,-000.58,0000.39,-000.08,-000.20,-000.04,-000.19,23.8,00.0,0634.8,34.1
2016-02-19T01:56:00Z,0000380,01000600,0000.30,0000.48,0000.04,-000.03,0000.16,-000.05,-000.06,0000.00,0000.13,23.8,00.0,0634.8,34.1
2016-02-19T01:57:00Z,0000380,41000600,,,,,,,,,,,,0634.9,34.1
2016-02-19T01:58:00Z,0000380,61000600,,,,,,,,,,23.7,00.0,0634.1,34.1
2016-02-19T01:59:00Z,0000380,21000600,,,,,,,,,,23.6,00.0,0634.0,34.1
2016-02-19T02:00:00Z,0000380,21000600,,,,,,,,,,23.5,00.0,0634.0,34.0
2016-02-19T02:01:00Z,0000380,21000600,,,,,,,,,,23.5,00.0,0634.0,34.0
2016-02-19T02:02:00Z,0000380,21000600,,,,,,,,,,23.5,00.0,0634.0,34.0
2016-02-19T02:03:00Z,0000380,61000600,,,,,,,,,,23.6,00.0,0634.0,34.0
2016-02-19T02:04:00Z,0000380,41000600,-000.13,-000.02,0000.00,-000.35,-000.18,0000.05,0000.04,0000.15,0000.05,23.7,00.0,0634.7,34.0
2016-02-19T02:05:00Z,0000380,01000600,-000.30,0000.00,-000.27,-000.15,0000.10,0000.07,0000.06,0000.11,0000.26,23.8,00.0,0634.8,34.0
2016-02-19T02:06:00Z,0000380,01000600,0000.09,-000.48,-000.18,-000.63,-000.02,-000.03,0000.05,-000.19,0000.02,23.8,00.0,0634.7,34.0
2016-02-19T02:07:00Z,0000380,01000600,0000.02,0000.39,-000.62,0000.30,-000.02,-000.30,0000.08,0000.06,0000.01,23.8,00.0,0634.8,34.0
2016-02-19T02:08:00Z,0000380,01000600,-000.85,0000.37,-000.47,-000.45,-000.02,0000.00,-000.13,0000.30,-000.03,23.8,00.0,0634.8,34.0
2016-02-19T02:09:00Z,0000380,01000600,-000.68,0000.30,-000.05,-000.21,-000.28,0000.05,0000.03,-000.07,-000.06,23.8,00.0,0634.8,34.0
2016-02-19T02:10:00Z,0000380,01000600,-000.46,-000.41,0000.33,-000.28,0000.20,0000.10,-000.02,-000.13,-000.07,23.8,00.0,0634.8,34.0
2016-02-19T02:11:00Z,0000380,01000600,0000.87,0000.00,0000.16,0000.13,-000.33,-000.31,0000.05,0000.16,0000.35,23.8,00.0,0634.8,34.0
2016-02-19T02:12:00Z,0000380,01000600,-000.51,-000.13,-000.53,-000.54,-000.07,0000.23,-000.11,-000.09,-000.24,23.7,00.0,0634.8,34.0
2016-02-19T02:13:00Z,0000380,01000600,0000.02,0000.09,-000.11,-000.43,-000.15,-000.18,0000.14,0000.12,-000.00,23.7,00.0,0634.8,34.0
2016-02-19T02:14:00Z,0000380,01000600,-000.11,-000.35,-000.16,0000.08,0000.53,0000.25,-000.15,-000.06,0000.32,23.7,00.0,0634.8,34.0
2016-02-19T02:15:00Z,0000380,01000600,0001.48,-000.22,-000.27,-000.25,0000.38,-000.02,0000.12,-000.07,-000.26,23.7,00.0,0634.8,34.0
2016-02-19T02:16:00Z,0000380,01000600,0000.51,-000.15,0000.05,0000.49,-000.03,0000.12,-000.09,0000.03,0000.03,23.7,00.0,0634.8,34.0
2016-02-19T02:17:00Z,0000380,01000600,0000.68,0000.36,-000.08,-000.63,-000.03,-000.20,-000.07,-000.13,-000.13,23.7,00.0,0634.8,34.0
2016-02-19T02:18:00Z,0000380,01000600,-000.09,0000.00,-000.03,0000.26,-000.36,-000.17,0000.22,0000.04,0000.09,23.7,00.0,0634.7,34.0
2016-02-19T02:19:00Z,0000380,01000600,0001.02,-000.11,-000.15,-000.54,-000.28,-000.17,-000.00,0000.03,-000.00,23.7,00.0,0634.7,34.0
2016-02-19T02:20:00Z,0000380,01000600,-000.27,0000.02,-000.29,-000.45,0000.00,0000.00,-000.03,0000.09,0000.31,23.8,00.0,0634.8,34.0
2016-02-19T02:21:00Z,0000380,01000600,0000.01,0000.01,-000.05,-000.68,-000.39,-000.50,0000.06,-000.04,-000.27,23.8,00.0,0634.8,34.0
2016-02-19T02:22:00Z,0000380,01000600,0000.70,-000.28,-000.11,0000.08,-000.20,-000.03,-000.11,-000.05,-000.02,23.8,00.0,0634.8,34.0
2016-02-19T02:23:00Z,0000380,01000600,0000.34,-000.02,0000.16,-000.28,-000.28,0000.00,0000.12,0000.23,0000.03,23.8,00.0,0634.7,34.0
2016-02-19T02:24:00Z,0000380,01000600,-000.10,0000.10,-000.09,-000.79,0000.05,0000.33,0000.03,-000.12,0000.44,23.8,00.0,0634.7,34.0
2016-02-19T02:25:00Z,0000380,01000600,0001.08,-000.58,-000.20,-000.21,-000.28,-000.03,-000.11,0000.17,-000.39,23.8,00.0,0634.7,34.0
2016-02-19T02:26:00Z,0000380,01000600,0000.91,-000.39,-000.15,-000.21,0000.16,-000.25,0000.13,-000.02,0000.10,23.8,00.0,0634.7,34.0
2016-02-19T02:27:00Z,0000380,01000600,-000.85,0000.22,-000.46,-000.26,-000.30,-000.07,-000.23,0000.01,-000.16,23.8,00.0,0634.7,34.0
2016-02-19T02:28:00Z,0000380,01000600,0000.34,-000.04,-000.49,-000.96,-000.64,-000.15,0000.08,0000.02,0000.18,23.7,00.0,0634.7,34.0
2016-02-19T02:29:00Z,0000380,01000600,0000.02,-000.63,0000.18,-000.21,-000.13,0000.35,0000.07,-000.08,0000.11,23.7,00.0,0634.7,34.0
2016-02-19T02:30:00Z,0000380,01000600,0001.04,0000.47,-000.16,-000.18,0000.05,-000.21,-000.05,-000.17,-000.53,23.7,00.0,0634.7,34.0
2016-02-19T02:31:00Z,0000380,01000600,0000.26,0000.05,-000.20,-000.05,-000.10,-000.08,-000.08,-000.10,0000.35,23.7,00.0,0634.7,34.0
2016-02-19T02:32:00Z,0000380,01000600,0000.34,0000.31,-000.08,-000.10,0000.03,0000.23,0000.07,0000.08,0000.03,23.7,00.0,0634.7,34.0
2016-02-19T02:33:00Z,0000380,01000600,0000.40,0000.47,-000.05,-000.20,0000.30,-000.05,0000.12,0000.02,0000.00,23.7,00.0,0634.7,34.0
2016-02-19T02:34:00Z,0000380,01000600,0000.05,0000.11,-000.32,0000.28,-000.39,-000.17,-000.10,-000.03,0000.22,23.7,00.0,0634.7,34.0
2016-02-19T02:35:00Z,0000380,01000600,0000.40,0000.27,-000.16,-000.05,0000.35,0000.21,0000.14,0000.19,-000.32,23.7,00.0,0634.6,34.0
2016-02-19T02:36:00Z,0000380,01000600,-000.22,0000.18,-000.29,-000.51,-000.46,-000.33,-000.17,0000.02,-000.14,23.7,00.0,0634.7,34.0
2016-02-19T02:37:00Z,0000380,01000600,0001.08,0000.55,-000.04,-000.43,-000.02,-000.17,0000.11,0000.02,0000.49,23.7,00.0,0634.7,34.0
2016-02-19T02:38:00Z,0000380,01000600,0000.58,0000.03,-000.03,-000.36,-000.23,-000.25,0000.06,-000.09,-000.34,23.7,00.0,0634.7,34.0
2016-02-19T02:39:00Z,0000380,01000600,-000.26,-000.07,-000.52,-000.69,-000.20,-000.45,0000.13,0000.04,0000.10,23.7,00.0,0634.7,34.0
2016-02-19T02:40:00Z,0000380,01000600,0000.31,0000.44,-000.04,-000.05,-000.57,-000.08,-000.20,-000.01,0000.07,23.6,00.0,0634.7,34.0
2016-02-19T02:41:00Z,0000380,01000600,0000.63,-000.18,-000.13,-000.48,-000.30,-000.15,-000.03,0000.24,0000.05,23.6,00.0,0634.7,34.0
2016-02-19T02:42:00Z,0000380,01000600,0000.76,0000.05,-000.11,0000.56,-000.36,-000.02,0000.08,0000.12,-000.06,23.5,00.0,0634.6,34.0
2016-02-19T02:43:00Z,0000380,01000600,0000.49,0000.25,-000.27,-000.40,0000.11,-000.12,-000.11,-000.29,0000.11,23.5,00.0,0634.7,34.0
2016-02-19T02:44:00Z,0000380,01000600,0000.80,-000.02,-000.18,0000.51,-000.26,0000.35,0000.26,0000.07,-000.33,23.5,00.0,0634.6,34.0
2016-02-19T02:45:00Z,0000380,01000600,-000.10,-000.07,-000.06,-000.43,-000.30,-000.20,-000.10,0000.10,0000.10,23.5,00.0,0634.6,34.0
2016-02-19T02:46:00Z,0000380,01000600,0000.04,-000.00,-000.07,-000.02,0000.11,0000.15,-000.09,-000.25,0000.21,23.5,00.0,0634.7,34.0
2016-02-19T02:47:00Z,0000380,01000600,0000.11,0000.32,0000.14,-000.18,-000.03,-000.15,0000.12,-000.09,0000.16,23.5,00.0,0634.6,34.0
2016-02-19T02:48:00Z,0000380,01000600,0000.88,-000.01,-000.03,0000.48,-000.20,-000.12,0000.13,0000.13,0000.10,23.5,00.0,0634.6,34.0
2016-02-19T02:49:00Z,0000380,01000600,0000.39,0000.09,-000.10,0000.31,-000.31,-000.26,-000.13,-000.05,-000.16,23.5,00.0,0634.6,34.0
2016-02-19T02:50:00Z,0000380,01000600,-000.13,0000.00,-000.38,-000.31,0000.16,0000.21,-000.11,0000.07,0000.15,23.6,00.0,0634.6,34.0
2016-02-19T02:51:00Z,0000380,01000600,0000.28,0000.18,0000.03,-000.02,-000.30,0000.03,0000.20,0000.08,0000.03,23.6,00.0,0634.7,34.0
2016-02-19T02:52:00Z,0000380,01000600,0000.22,0000.13,-000.24,0000.08,-000.26,-000.15,-000.11,-000.04,-000.15,23.7,00.0,0634.7,34.0
2016-02-19T02:53:00Z,0000380,01000600,0000.22,0000.34,-000.43,-000.10,-000.18,-000.23,0000.24,-000.00,-000.16,23.7,00.0,0634.7,34.0
2016-02-19T02:54:00Z,0000380,01000600,0000.93,0000.56,0000.04,-000.08,-000.07,-000.03,-000.02,0000.10,0000.28,23.8,00.0,0634.7,34.0
2016-02-19T02:55:00Z,0000380,01000600,0000.52,-000.21,-000.26,-000.33,-000.26,-000.10,-000.08,0000.09,-000.22,23.8,00.0,0634.7,34.0
2016-02-19T02:56:00Z,0000380,01000600,0001.04,0000.30,-000.14,0000.15,-000.18,-000.35,-000.13,-000.03,0000.04,23.8,00.0,0634.7,34.0
2016-02-19T02:57:00Z,0000380,41000600,,,,,,,,,,,,0634.7,34.0
2016-02-19T02:58:00Z,0000380,61000600,,,,,,,,,,23.5,00.0,0634.0,34.0
2016-02-19T02:59:00Z,0000380,21000600,,,,,,,,,,23.5,00.0,0634.0,34.0
2016-02-19T03:00:00Z,0000380,21000600,,,,,,,,,,23.5,00.0,0633.9,34.1
2016-02-19T03:01:00Z,0000380,21000600,,,,,,,,,,23.5,00.0,0633.9,34.1
2016-02-19T03:02:00Z,0000380,21000600,,,,,,,,,,23.5,00.0,0633.9,34.1
2016-02-19T03:03:00Z,0000380,61000600,,,,,,,,,,23.6,00.0,0633.9,34.1
2016-02-19T03:04:00Z,0000380,41000600,-000.39,0000.15,0000.62,0000.46,-000.18,0000.10,0000.07,-000.05,0000.08,23.8,00.0,0634.7,34.1
2016-02-19T03:05:00Z,0000380,01000600,-000.39,0000.90,0000.57,-000.33,-000.02,0000.02,-000.06,-000.00,-000.13,23.8,00.0,0634.7,34.1
2016-02-19T03:06:00Z,0000380,01000600,-000.59,-000.37,0000.24,0000.58,0000.08,0000.03,0000.18,-000.05,0000.14,23.8,00.0,0634.7,34.1
2016-02-19T03:07:00Z,0000380,01000600,0000.81,0000.95,-000.06,-000.56,-000.18,0000.03,0000.07,0000.22,0000.19,23.8,00.0,0634.7,34.1
2016-02-19T03:08:00Z,0000380,01000600,-000.06,0000.04,0000.04,-000.50,0000.05,0000.05,0000.04,0000.07,-000.32,23.8,00.0,0634.7,34.1
2016-02-19T03:09:00Z,0000380,01000600,-000.10,0000.02,0000.28,0000.07,-000.07,-000.07,-000.27,0000.09,0000.43,23.8,00.0,0634.6,34.1
2016-02-19T03:10:00Z,0000380,01000600,-000.97,-000.71,-000.07,-000.45,0000.10,-000.23,-000.08,-000.12,-000.22,23.8,00.0,0634.7,34.1
2016-02-19T03:11:00Z,0000380,01000600,0000.15,-000.20,0000.18,-000.28,-000.21,-000.07,0000.26,0000.15,0000.02,23.8,00.0,0634.6,34.1
2016-02-19T03:12:00Z,0000380,01000600,-000.59,-000.02,-000.20,-000.17,0000.18,-000.40,-000.04,-000.02,-000.03,23.8,00.0,0634.6,34.1